This is the latest recevied weather packets stored in our database for station/object N3EG. If no packets are shown the sender has not sent any weather packets the latest 10 day(s).
| Time | Temp. | Humidity | Pressure | Rain* | Wind** | Luminosity | Snow |
|---|---|---|---|---|---|---|---|
| 1777824003 | 18.33° C | 75% | 1013.2 hPa | 0 mm | - | - | - |
| 1777823702 | 17.78° C | 76% | 1013.3 hPa | 0 mm | - | - | - |
| 1777823403 | 17.78° C | 77% | 1013.2 hPa | 0 mm | - | - | - |
| 1777823103 | 17.22° C | 79% | 1013.3 hPa | 0 mm | - | - | - |
| 1777822802 | 17.22° C | 80% | 1013.3 hPa | 0 mm | - | - | - |
| 1777822503 | 16.67° C | 83% | 1013.3 hPa | 0 mm | - | - | - |
| 1777822203 | 16.67° C | 84% | 1013.4 hPa | 0 mm | - | - | - |
| 1777821902 | 16.11° C | 86% | 1013.3 hPa | 0 mm | - | - | - |
| 1777821603 | 16.11° C | 87% | 1013.3 hPa | 0 mm | - | - | - |
| 1777821303 | 15.56° C | 90% | 1013.3 hPa | 0 mm | - | - | - |
| 1777821002 | 15° C | 90% | 1013.4 hPa | 0 mm | - | - | - |
| 1777820703 | 14.44° C | 91% | 1013.3 hPa | 0 mm | - | - | - |
| 1777820403 | 14.44° C | 91% | 1013.5 hPa | 0 mm | - | - | - |
| 1777820102 | 13.89° C | 91% | 1013.5 hPa | 0 mm | - | - | - |
| 1777819803 | 13.89° C | 92% | 1013.5 hPa | 0 mm | - | - | - |
| 1777819503 | 13.89° C | 92% | 1013.5 hPa | 0 mm | - | - | - |
| 1777819202 | 13.33° C | 92% | 1013.6 hPa | 0 mm | - | - | - |
| 1777818903 | 12.78° C | 93% | 1013.6 hPa | 0 mm | - | - | - |
| 1777818602 | 12.78° C | 92% | 1013.5 hPa | 0 mm | - | - | - |
| 1777818303 | 12.22° C | 93% | 1013.5 hPa | 0 mm | - | - | - |
| 1777818003 | 12.22° C | 93% | 1013.4 hPa | 0 mm | - | - | - |
| 1777817702 | 12.22° C | 93% | 1013.3 hPa | 0 mm | - | - | - |
| 1777817402 | 11.67° C | 93% | 1013.4 hPa | 0 mm | - | - | - |
| 1777817103 | 11.11° C | 93% | 1013.3 hPa | 0 mm | - | - | - |
| 1777816802 | 11.11° C | 93% | 1013.2 hPa | 0 mm | - | - | - |
* Rain latest hour (hover to see other rain measurements)
** Current wind speed in m/s (hover to see current wind gust speed)